When you browse on this site, cookies collect data to enhance your experience and personalize the content and advertising you see.
Visit our Privacy Policy to learn more. By continuing to use the site, you agree to this use of cookies and data.
  • In Deutschland
  • Länderverzeichnis
  • Für 7 Tage
  • Wassertemperatur
  • Satellitenkarten
  • Wetterkarte
  • Widgets
  • user-avatar
    Anmelden

    Stündliche Wetter Ryaska

    Heute, 20 Februar, Mittwoch

    Zeit Temperatur Niederschläge Wind Luftdruck Luftfeuchtigkeit
    00:00 -2°C° 0 mm 1 m/S 765 mmHg 60%
    01:00 -2°C° 0 mm 1 m/S 765 mmHg 59%
    02:00 -4°C° 0 mm 2 m/S 764 mmHg 59%
    03:00 -4°C° 0 mm 2 m/S 764 mmHg 58%
    04:00 -4°C° 0 mm 2 m/S 764 mmHg 57%
    05:00 -4°C° 0 mm 2 m/S 763 mmHg 57%
    06:00 -4°C° 0 mm 2 m/S 763 mmHg 57%
    07:00 -3°C° 0 mm 2 m/S 763 mmHg 53%
    08:00 -2°C° 0 mm 3 m/S 763 mmHg 50%
    09:00 -1°C° 0 mm 3 m/S 762 mmHg 47%
    10:00 0°C° 0 mm 3 m/S 762 mmHg 42%
    11:00 +2°C° 0 mm 3 m/S 762 mmHg 37%
    12:00 +3°C° 0 mm 3 m/S 761 mmHg 32%
    13:00 +4°C° 0 mm 3 m/S 761 mmHg 34%
    14:00 +5°C° 0 mm 4 m/S 760 mmHg 36%
    15:00 +5°C° 0 mm 4 m/S 760 mmHg 38%
    16:00 +4°C° 0 mm 3 m/S 759 mmHg 45%
    17:00 +3°C° 0 mm 3 m/S 759 mmHg 53%
    18:00 +1°C° 0 mm 3 m/S 759 mmHg 61%
    19:00 +1°C° 0 mm 3 m/S 759 mmHg 65%
    20:00 +1°C° 0 mm 3 m/S 759 mmHg 70%
    21:00 0°C° 0 mm 3 m/S 759 mmHg 75%
    22:00 0°C° 0 mm 3 m/S 758 mmHg 77%
    23:00 0°C° 0 mm 3 m/S 758 mmHg 78%

    Morgen, 21 Februar, Donnerstag

    Zeit Temperatur Niederschläge Wind Luftdruck Luftfeuchtigkeit
    00:00 0°C° 0 mm 3 m/S 758 mmHg 80%
    01:00 0°C° 0 mm 3 m/S 758 mmHg 83%
    02:00 -1°C° 0 mm 4 m/S 757 mmHg 86%
    03:00 -1°C° 0 mm 4 m/S 757 mmHg 89%
    04:00 -1°C° 0 mm 4 m/S 757 mmHg 90%
    05:00 -1°C° 0 mm 4 m/S 756 mmHg 91%
    06:00 -1°C° 0 mm 5 m/S 756 mmHg 93%
    07:00 0°C° 0 mm 5 m/S 756 mmHg 91%
    08:00 +1°C° 0 mm 6 m/S 756 mmHg 89%
    09:00 +2°C° 0 mm 6 m/S 756 mmHg 87%
    10:00 +2°C° 0.1 mm 7 m/S 755 mmHg 84%
    11:00 +3°C° 0.1 mm 7 m/S 755 mmHg 81%
    12:00 +4°C° 0.1 mm 7 m/S 754 mmHg 77%
    13:00 +4°C° 0.2 mm 7 m/S 754 mmHg 78%
    14:00 +4°C° 0.2 mm 7 m/S 753 mmHg 79%
    15:00 +4°C° 0.2 mm 7 m/S 753 mmHg 80%
    16:00 +3°C° 0 mm 7 m/S 753 mmHg 74%
    17:00 +3°C° 0 mm 6 m/S 752 mmHg 69%
    18:00 +2°C° 0 mm 6 m/S 752 mmHg 64%
    19:00 +1°C° 0.2 mm 6 m/S 753 mmHg 69%
    20:00 0°C° 0.2 mm 7 m/S 753 mmHg 73%
    21:00 -1°C° 0.2 mm 8 m/S 753 mmHg 78%
    22:00 -2°C° 0.2 mm 7 m/S 754 mmHg 73%
    23:00 -4°C° 0.2 mm 6 m/S 754 mmHg 68%

    übermorgen, 22 Februar, Freitag

    Zeit Temperatur Niederschläge Wind Luftdruck Luftfeuchtigkeit
    00:00 -5°C° 0.2 mm 6 m/S 755 mmHg 62%
    01:00 -5°C° 0 mm 6 m/S 755 mmHg 64%
    02:00 -5°C° 0 mm 5 m/S 755 mmHg 65%
    03:00 -6°C° 0 mm 5 m/S 756 mmHg 67%
    04:00 -6°C° 0 mm 5 m/S 756 mmHg 65%
    05:00 -6°C° 0 mm 5 m/S 756 mmHg 63%
    06:00 -6°C° 0 mm 5 m/S 756 mmHg 61%
    07:00 -5°C° 0 mm 6 m/S 756 mmHg 59%
    08:00 -5°C° 0 mm 6 m/S 757 mmHg 57%
    09:00 -4°C° 0 mm 7 m/S 757 mmHg 55%
    10:00 -4°C° 0 mm 7 m/S 757 mmHg 52%
    11:00 -3°C° 0 mm 7 m/S 757 mmHg 50%
    12:00 -2°C° 0 mm 7 m/S 757 mmHg 48%
    13:00 -2°C° 0 mm 7 m/S 756 mmHg 47%
    14:00 -1°C° 0 mm 6 m/S 756 mmHg 46%
    15:00 -1°C° 0 mm 6 m/S 756 mmHg 46%
    16:00 -1°C° 0 mm 5 m/S 756 mmHg 50%
    17:00 -2°C° 0 mm 4 m/S 756 mmHg 53%
    18:00 -1°C° 0 mm 2 m/S 756 mmHg 57%
    19:00 -2°C° 0.2 mm 2 m/S 756 mmHg 64%
    20:00 -2°C° 0.2 mm 2 m/S 756 mmHg 71%
    21:00 -3°C° 0.2 mm 2 m/S 756 mmHg 79%
    22:00 -4°C° 0.6 mm 3 m/S 756 mmHg 83%
    23:00 -4°C° 0.6 mm 4 m/S 756 mmHg 87%

    23 Februar, Samstag

    Zeit Temperatur Niederschläge Wind Luftdruck Luftfeuchtigkeit
    00:00 -5°C° 0.6 mm 5 m/S 756 mmHg 91%
    01:00 -6°C° 0.8 mm 5 m/S 756 mmHg 92%
    02:00 -6°C° 0.8 mm 5 m/S 756 mmHg 92%
    03:00 -6°C° 0.8 mm 5 m/S 756 mmHg 93%
    04:00 -6°C° 0.6 mm 5 m/S 756 mmHg 93%
    05:00 -6°C° 0.6 mm 5 m/S 757 mmHg 94%
    06:00 -6°C° 0.6 mm 5 m/S 757 mmHg 94%
    07:00 -6°C° 0.3 mm 5 m/S 757 mmHg 94%
    08:00 -6°C° 0.3 mm 5 m/S 757 mmHg 95%
    09:00 -6°C° 0.3 mm 5 m/S 758 mmHg 95%
    10:00 -6°C° 0.3 mm 5 m/S 758 mmHg 95%
    11:00 -5°C° 0.3 mm 5 m/S 758 mmHg 96%
    12:00 -5°C° 0.3 mm 5 m/S 758 mmHg 96%
    13:00 -5°C° 0.3 mm 5 m/S 758 mmHg 96%
    14:00 -5°C° 0.3 mm 5 m/S 758 mmHg 96%
    15:00 -5°C° 0.3 mm 6 m/S 759 mmHg 95%
    16:00 -6°C° 0.3 mm 6 m/S 759 mmHg 95%
    17:00 -8°C° 0.3 mm 6 m/S 759 mmHg 95%
    18:00 -8°C° 0.3 mm 6 m/S 760 mmHg 95%
    19:00 -7°C° 0.3 mm 5 m/S 760 mmHg 95%
    20:00 -8°C° 0.3 mm 5 m/S 760 mmHg 95%
    21:00 -8°C° 0.3 mm 5 m/S 761 mmHg 95%
    22:00 -8°C° 0.1 mm 5 m/S 761 mmHg 95%
    23:00 -8°C° 0.1 mm 4 m/S 761 mmHg 95%

    24 Februar, Sonntag

    Zeit Temperatur Niederschläge Wind Luftdruck Luftfeuchtigkeit
    00:00 -8°C° 0.1 mm 4 m/S 761 mmHg 95%
    01:00 -8°C° 0 mm 4 m/S 761 mmHg 95%
    02:00 -8°C° 0 mm 4 m/S 762 mmHg 95%
    03:00 -8°C° 0 mm 4 m/S 762 mmHg 95%
    04:00 -7°C° 0.1 mm 3 m/S 762 mmHg 95%
    05:00 -7°C° 0.1 mm 3 m/S 762 mmHg 96%
    06:00 -7°C° 0.1 mm 3 m/S 762 mmHg 96%
    07:00 -7°C° 0.2 mm 3 m/S 762 mmHg 96%
    08:00 -7°C° 0.2 mm 3 m/S 762 mmHg 96%
    09:00 -6°C° 0.2 mm 3 m/S 763 mmHg 96%
    10:00 -6°C° 0.4 mm 3 m/S 762 mmHg 96%
    11:00 -6°C° 0.4 mm 3 m/S 762 mmHg 96%
    12:00 -5°C° 0.4 mm 3 m/S 762 mmHg 96%
    13:00 -5°C° 0.4 mm 3 m/S 762 mmHg 96%
    14:00 -5°C° 0.4 mm 3 m/S 762 mmHg 96%
    15:00 -4°C° 0.4 mm 3 m/S 762 mmHg 96%
    16:00 -4°C° 0.4 mm 3 m/S 762 mmHg 96%
    17:00 -4°C° 0.4 mm 3 m/S 762 mmHg 96%
    18:00 -4°C° 0.4 mm 3 m/S 763 mmHg 96%
    19:00 -4°C° 0.1 mm 3 m/S 763 mmHg 96%
    20:00 -4°C° 0.1 mm 3 m/S 763 mmHg 96%
    21:00 -4°C° 0.1 mm 3 m/S 763 mmHg 96%
    22:00 -4°C° 0.1 mm 4 m/S 763 mmHg 96%
    23:00 -4°C° 0.1 mm 4 m/S 763 mmHg 96%

    25 Februar, Montag

    Zeit Temperatur Niederschläge Wind Luftdruck Luftfeuchtigkeit
    00:00 -4°C° 0.1 mm 4 m/S 763 mmHg 96%
    01:00 -4°C° 0 mm 4 m/S 763 mmHg 96%
    02:00 -3°C° 0 mm 4 m/S 763 mmHg 96%
    03:00 -3°C° 0 mm 4 m/S 763 mmHg 96%
    04:00 -3°C° 0 mm 4 m/S 763 mmHg 96%
    05:00 -4°C° 0 mm 4 m/S 763 mmHg 96%
    06:00 -4°C° 0 mm 4 m/S 763 mmHg 96%
    07:00 -3°C° 0 mm 4 m/S 763 mmHg 96%
    08:00 -3°C° 0 mm 4 m/S 763 mmHg 96%
    09:00 -3°C° 0 mm 4 m/S 763 mmHg 96%
    10:00 -2°C° 0 mm 4 m/S 763 mmHg 97%
    11:00 -2°C° 0 mm 4 m/S 762 mmHg 98%
    12:00 -2°C° 0 mm 4 m/S 762 mmHg 99%
    13:00 -2°C° 0 mm 4 m/S 762 mmHg 99%
    14:00 -2°C° 0 mm 4 m/S 761 mmHg 98%
    15:00 -2°C° 0 mm 4 m/S 761 mmHg 98%
    16:00 -1°C° 0 mm 3 m/S 761 mmHg 97%
    17:00 -2°C° 0 mm 3 m/S 760 mmHg 97%
    18:00 -2°C° 0 mm 3 m/S 760 mmHg 96%
    19:00 -2°C° 0 mm 3 m/S 760 mmHg 96%
    20:00 -2°C° 0 mm 3 m/S 759 mmHg 96%
    21:00 -4°C° 0 mm 3 m/S 759 mmHg 96%
    22:00 -2°C° 0 mm 3 m/S 758 mmHg 96%
    23:00 -2°C° 0 mm 3 m/S 758 mmHg 97%
    Mehr zeigen